Temp
69 69 69 69 69 70 70 69 68 69 68 68 67 68 67 68 70 69 68 68 68 68 66 66 66 66 65 64 65 64 62 63 65 62 62 66 70 69 69 68 66 64 63
65 66 67 67 68 68 68 68 68 68 68 66 66 65 65 66 66 66 68 68 67 66 65 65 64 65 63 64 64 62 60 61 64 59 57 56 62 66 67 67 66 64 62
65 65 66 67 67 65 66 66 66 66 66 66 66 66 67 66 66 66 66 66 66 65 64 63 63 63 63 61 62 61 59 56 60 62 56 52 51 55 65 65 66 66 63
66 66 65 65 65 63 64 65 65 65 66 65 65 63 62 61 63 63 64 65 66 65 63 62 62 62 62 61 61 62 59 58 55 59 62 61 57 51 50 61 63 66 64
65 64 64 63 64 64 63 64 65 64 64 64 64 62 61 62 63 64 63 64 64 65 63 62 61 61 61 61 60 59 59 59 57 57 57 58 59 59 51 50 56 63 65
64 63 63 63 62 63 63 63 64 63 64 64 63 62 59 59 59 60 60 61 62 62 62 61 60 60 60 59 59 59 58 58 58 58 58 57 55 55 55 52 55 56 61
62 60 61 62 63 62 62 63 63 61 63 62 62 61 60 59 59 59 58 58 59 59 59 59 58 59 59 59 59 58 58 58 57 57 57 58 58 59 57 55 53 54 58
62 61 62 62 62 62 61 62 61 60 61 61 60 61 60 59 59 59 58 58 58 58 58 58 58 59 59 59 58 58 58 58 57 56 56 57 57 58 57 54 52 49 53
61 61 62 62 62 62 61 60 60 60 60 60 60 60 60 59 58 58 59 58 58 58 58 58 58 58 58 58 58 57 57 58 57 56 56 55 57 57 57 56 54 50 46
61 62 62 62 63 63 61 60 60 59 60 59 60 60 59 59 59 59 57 57 58 58 57 57 57 57 58 58 57 56 57 56 56 56 55 55 56 56 55 53 53 52 50
62 62 63 64 64 64 62 61 60 60 60 60 60 59 58 59 59 59 58 58 58 58 57 57 57 57 57 57 56 56 56 55 55 55 55 54 55 54 54 53 52 51 51
64 65 64 64 63 62 62 61 61 61 60 60 59 59 59 58 58 58 58 58 57 58 57 57 57 57 56 56 55 54 54 53 52 53 53 53 55 52 52 52 50 50 51
64 65 64 63 62 62 62 61 61 60 60 59 58 58 58 58 57 57 57 58 57 57 57 56 55 55 55 54 55 54 54 53 53 52 51 51 51 50 51 50 50 49 51
63 63 62 63 63 63 62 61 61 60 59 57 57 56 57 56 56 56 56 56 56 55 55 55 54 54 54 54 53 52 52 53 53 53 51 51 50 49 48 49 48 49 47
60 61 60 62 62 61 61 60 59 58 58 56 55 55 56 56 55 55 54 55 54 54 54 53 53 53 52 53 48 48 50 51 51 52 53 51 49 46 47 46 46 47 46
57 59 60 61 61 62 61 60 58 57 57 55 55 55 55 54 53 53 53 53 53 53 53 52 51 50 52 50 47 46 47 50 51 50 51 51 48 49 48 48 47 46 43
55 56 58 59 60 61 60 59 59 59 55 54 54 54 54 52 52 53 52 51 51 52 51 51 51 50 51 50 48 46 47 48 49 49 49 49 51 48 49 49 48 48 47
55 56 58 59 60 60 59 58 57 55 54 53 53 54 53 51 52 51 50 50 51 50 50 50 50 49 50 49 48 47 46 48 49 49 49 48 48 49 47 45 44 45 47
56 57 58 59 59 58 58 56 54 54 53 51 52 53 52 51 50 49 49 50 49 49 49 49 48 48 49 48 47 46 46 47 48 50 50 48 47 47 47 43 42 43 45
54 53 54 55 54 56 56 52 51 52 51 52 52 52 51 50 49 49 49 49 50 48 48 48 49 48 48 49 48 47 46 45 47 48 49 48 47 47 45 42 42 40 43
51 52 52 52 53 54 51 49 49 49 52 52 51 50 50 49 50 49 49 48 48 48 47 47 48 49 50 50 49 48 46 44 44 45 46 48 48 46 45 44 41 41 44
50 51 49 49 51 51 49 47 48 51 51 50 49 49 49 50 50 47 46 46 46 45 46 46 47 48 50 49 49 48 46 45 43 43 45 46 46 45 44 43 43 44 43
49 50 49 48 50 51 51 47 48 50 50 49 48 49 49 50 49 46 45 45 46 45 45 45 45 45 47 47 48 48 47 46 43 43 44 44 44 43 42 42 44 44 41
48 49 48 47 47 50 50 50 50 51 49 47 47 48 48 48 48 48 47 45 45 45 44 43 42 43 44 44 45 46 45 46 44 43 42 42 43 43 43 42 42 41 40
48 48 47 46 46 49 49 50 50 49 47 47 46 46 46 46 45 46 45 45 46 45 43 42 41 39 38 41 44 43 42 41 42 41 40 39 38 38 38 39 39 39 38
46 45 45 46 46 47 48 49 50 49 47 45 44 44 44 44 44 43 43 45 44 44 43 43 41 41 42 42 42 42 42 42 42 38 36 36 36 35 36 36 37 37 38
MSLP
1014.64 1015.37 1015.87 1016.26 1016.53 1016.78 1017.02 1017.27 1017.58 1017.68 1017.75 1017.50 1017.30 1017.06 1017.03 1016.98 1016.82 1016.85 1016.94 1016.82 1016.72 1016.66 1016.64 1016.37 1016.05 1015.84 1015.68 1015.49 1015.28 1015.02 1014.72 1014.24 1013.74 1013.10 1012.48 1011.42 1010.80 1011.03 1010.84 1010.80 1011.08 1011.08 1010.68
1014.98 1015.65 1016.17 1016.56 1016.73 1016.96 1017.18 1017.42 1017.67 1017.76 1017.80 1017.78 1017.72 1017.69 1017.50 1017.32 1017.26 1017.17 1016.86 1016.70 1016.79 1016.72 1016.64 1016.44 1016.23 1016.01 1015.79 1015.53 1015.34 1015.23 1015.01 1014.54 1014.08 1013.73 1013.21 1011.97 1010.98 1010.77 1010.87 1010.72 1010.83 1011.03 1010.83
1014.90 1015.63 1016.15 1016.55 1016.98 1017.29 1017.46 1017.68 1017.95 1017.98 1017.94 1017.92 1017.80 1017.54 1017.21 1017.15 1016.88 1016.95 1016.86 1016.83 1016.77 1016.68 1016.67 1016.57 1016.34 1016.12 1015.95 1015.71 1015.61 1015.42 1015.28 1014.92 1014.57 1014.15 1014.15 1013.20 1012.66 1012.37 1010.87 1010.94 1010.61 1010.49 1010.79
1015.00 1015.65 1016.29 1016.73 1017.15 1017.61 1017.80 1017.93 1018.12 1018.13 1018.09 1018.05 1017.81 1017.67 1017.49 1017.27 1017.22 1017.16 1017.00 1016.77 1016.57 1016.60 1016.58 1016.55 1016.35 1016.17 1016.03 1015.86 1015.73 1015.49 1015.49 1015.31 1014.81 1014.45 1013.92 1013.88 1013.66 1013.06 1011.92 1011.43 1011.02 1010.50 1010.54
1015.29 1015.94 1016.51 1017.08 1017.50 1017.74 1017.94 1018.06 1018.14 1018.21 1018.27 1018.18 1018.08 1017.97 1017.83 1017.63 1017.41 1017.19 1017.02 1016.77 1016.61 1016.53 1016.55 1016.54 1016.41 1016.19 1016.01 1015.86 1015.74 1015.61 1015.48 1015.33 1015.14 1014.69 1014.34 1013.90 1013.47 1013.04 1012.87 1011.83 1011.39 1011.02 1010.72
1015.62 1016.26 1016.83 1017.23 1017.64 1017.86 1018.00 1018.11 1018.15 1018.35 1018.33 1018.28 1018.21 1018.14 1018.10 1017.93 1017.67 1017.46 1017.28 1017.09 1016.92 1016.77 1016.61 1016.62 1016.39 1016.14 1015.95 1015.78 1015.60 1015.47 1015.43 1015.35 1015.11 1014.88 1014.56 1014.17 1013.81 1013.34 1012.97 1012.49 1011.93 1011.50 1010.98
1015.76 1016.33 1016.75 1017.11 1017.46 1017.70 1018.04 1018.20 1018.28 1018.40 1018.49 1018.46 1018.39 1018.32 1018.26 1018.14 1017.94 1017.82 1017.70 1017.54 1017.21 1017.01 1016.90 1016.82 1016.54 1016.21 1015.92 1015.71 1015.52 1015.40 1015.29 1015.14 1014.94 1014.79 1014.54 1014.25 1013.99 1013.66 1013.37 1013.01 1012.35 1011.74 1011.35
1015.71 1016.19 1016.51 1017.03 1017.41 1017.72 1018.05 1018.21 1018.35 1018.52 1018.65 1018.59 1018.55 1018.44 1018.38 1018.32 1018.22 1018.17 1018.04 1017.78 1017.55 1017.36 1017.18 1016.90 1016.56 1016.21 1015.87 1015.58 1015.40 1015.27 1015.10 1014.88 1014.77 1014.63 1014.53 1014.30 1014.01 1013.78 1013.52 1013.36 1013.05 1012.18 1011.51
1015.68 1016.05 1016.58 1016.96 1017.29 1017.70 1018.06 1018.37 1018.55 1018.65 1018.69 1018.66 1018.52 1018.45 1018.45 1018.47 1018.41 1018.33 1018.19 1018.04 1017.81 1017.57 1017.27 1016.93 1016.57 1016.21 1015.88 1015.67 1015.47 1015.22 1014.96 1014.71 1014.48 1014.33 1014.29 1014.16 1013.94 1013.75 1013.60 1013.52 1013.36 1013.11 1012.17
1015.31 1015.72 1016.30 1016.77 1017.22 1017.65 1018.11 1018.39 1018.53 1018.53 1018.48 1018.51 1018.40 1018.43 1018.45 1018.48 1018.45 1018.34 1018.21 1018.09 1017.89 1017.60 1017.35 1017.01 1016.70 1016.34 1016.00 1015.69 1015.41 1015.12 1014.83 1014.62 1014.45 1014.26 1014.08 1013.98 1013.82 1013.65 1013.60 1013.56 1013.51 1013.39 1013.02
1014.95 1015.49 1016.09 1016.57 1017.11 1017.55 1017.93 1018.15 1018.31 1018.29 1018.26 1018.34 1018.37 1018.37 1018.42 1018.41 1018.33 1018.16 1018.08 1017.99 1017.83 1017.56 1017.32 1017.08 1016.75 1016.36 1016.04 1015.73 1015.45 1015.17 1014.88 1014.63 1014.33 1014.10 1013.92 1013.78 1013.74 1013.66 1013.53 1013.39 1013.34 1013.35 1013.21
1014.63 1015.10 1015.65 1016.18 1016.80 1017.18 1017.50 1017.76 1017.89 1017.94 1018.06 1018.21 1018.26 1018.29 1018.36 1018.33 1018.17 1018.06 1018.07 1017.99 1017.78 1017.54 1017.27 1017.02 1016.70 1016.37 1016.10 1015.86 1015.55 1015.26 1015.03 1014.70 1014.36 1014.08 1013.88 1013.70 1013.53 1013.50 1013.48 1013.39 1013.27 1013.19 1013.08
1014.19 1014.55 1015.10 1015.65 1016.18 1016.58 1017.02 1017.31 1017.52 1017.72 1017.96 1018.06 1018.09 1018.09 1018.09 1018.14 1018.13 1018.12 1018.09 1017.97 1017.78 1017.54 1017.24 1016.97 1016.70 1016.40 1016.14 1015.86 1015.51 1015.26 1014.90 1014.58 1014.29 1014.08 1013.92 1013.77 1013.63 1013.52 1013.39 1013.27 1013.14 1013.00 1012.79
1014.03 1014.39 1014.73 1015.15 1015.64 1016.07 1016.56 1016.89 1017.16 1017.48 1017.67 1017.84 1017.88 1017.96 1017.99 1018.10 1018.14 1018.11 1018.01 1017.87 1017.73 1017.52 1017.28 1017.05 1016.79 1016.52 1016.21 1015.91 1015.61 1015.37 1014.90 1014.42 1014.06 1013.83 1013.74 1013.70 1013.65 1013.55 1013.45 1013.31 1013.17 1013.00 1012.81
1014.24 1014.28 1014.56 1014.82 1015.23 1015.81 1016.20 1016.57 1016.97 1017.34 1017.67 1017.88 1017.85 1017.82 1017.90 1017.99 1018.01 1017.93 1017.83 1017.70 1017.54 1017.33 1017.07 1016.84 1016.56 1016.38 1016.25 1015.92 1015.96 1015.67 1015.13 1014.53 1014.04 1013.69 1013.40 1013.28 1013.27 1013.39 1013.46 1013.36 1013.07 1012.92 1012.71
1014.80 1014.49 1014.56 1014.93 1015.16 1015.51 1015.91 1016.38 1016.88 1017.22 1017.66 1017.79 1017.76 1017.74 1017.82 1017.85 1017.90 1017.77 1017.56 1017.36 1017.16 1016.96 1016.76 1016.56 1016.30 1016.10 1015.88 1015.70 1015.83 1015.73 1015.20 1014.56 1013.93 1013.56 1013.25 1013.00 1012.83 1012.76 1012.78 1012.80 1012.84 1012.81 1012.62
1015.73 1015.42 1015.15 1015.30 1015.47 1015.64 1016.02 1016.39 1016.63 1016.97 1017.33 1017.42 1017.47 1017.48 1017.51 1017.52 1017.54 1017.45 1017.34 1017.14 1016.90 1016.66 1016.41 1016.16 1015.95 1015.74 1015.54 1015.38 1015.38 1015.32 1015.00 1014.43 1013.81 1013.42 1013.06 1012.76 1012.54 1012.42 1012.32 1012.26 1012.13 1012.03 1011.93
1016.27 1015.91 1015.65 1015.62 1015.79 1016.07 1016.35 1016.56 1016.76 1016.99 1017.15 1017.18 1017.24 1017.26 1017.22 1017.15 1017.11 1017.08 1016.94 1016.74 1016.51 1016.30 1016.02 1015.70 1015.46 1015.27 1015.07 1014.88 1014.77 1014.80 1014.62 1014.03 1013.51 1013.19 1012.89 1012.58 1012.27 1012.08 1012.03 1011.99 1011.83 1011.53 1011.15
1016.84 1016.63 1016.34 1016.13 1016.18 1016.26 1016.38 1016.55 1016.64 1016.66 1016.74 1016.77 1016.71 1016.78 1016.84 1016.84 1016.67 1016.50 1016.44 1016.31 1016.10 1015.92 1015.70 1015.34 1015.03 1014.82 1014.43 1014.19 1014.05 1014.03 1013.78 1013.30 1012.81 1012.44 1012.23 1012.11 1011.94 1011.89 1011.83 1011.86 1011.53 1011.02 1010.44
1017.55 1017.25 1017.06 1016.98 1016.98 1016.78 1016.75 1016.90 1016.74 1016.55 1016.47 1016.41 1016.43 1016.51 1016.51 1016.33 1016.17 1016.06 1015.89 1015.65 1015.48 1015.28 1015.14 1014.85 1014.43 1014.03 1013.70 1013.41 1013.32 1013.39 1013.31 1012.74 1012.17 1011.88 1011.59 1011.45 1011.43 1011.34 1011.55 1011.49 1011.27 1010.64 1010.07
1017.98 1017.91 1017.64 1017.30 1016.98 1016.96 1017.12 1016.97 1016.74 1016.39 1016.26 1016.31 1016.42 1016.28 1016.22 1016.06 1015.87 1015.61 1015.41 1015.07 1014.89 1014.66 1014.38 1014.10 1013.68 1013.23 1012.84 1012.55 1012.36 1012.51 1012.56 1012.28 1011.82 1011.39 1010.99 1010.76 1010.66 1010.72 1010.87 1010.97 1010.81 1010.27 1009.94
1018.18 1018.05 1017.94 1017.64 1017.44 1017.37 1017.23 1016.88 1016.58 1016.37 1016.23 1016.06 1016.05 1015.98 1015.71 1015.50 1015.28 1015.14 1014.88 1014.71 1014.36 1013.97 1013.66 1013.18 1012.71 1012.24 1011.91 1011.75 1011.64 1011.59 1011.60 1011.51 1011.36 1010.76 1010.43 1010.16 1010.03 1010.01 1010.19 1010.23 1009.88 1009.62 1009.40
1018.16 1017.95 1017.72 1017.48 1017.27 1017.02 1016.81 1016.61 1016.45 1016.23 1016.02 1015.90 1015.71 1015.38 1015.10 1014.87 1014.65 1014.40 1014.08 1013.84 1013.42 1013.06 1012.71 1012.46 1011.95 1011.54 1011.25 1011.00 1010.90 1010.67 1010.57 1010.49 1010.54 1010.31 1010.03 1009.83 1009.65 1009.62 1009.46 1009.28 1008.90 1008.70 1008.62
1018.20 1017.98 1017.70 1017.50 1017.11 1016.86 1016.57 1016.21 1015.94 1015.76 1015.62 1015.41 1015.07 1014.81 1014.46 1014.14 1013.87 1013.60 1013.26 1012.97 1012.58 1012.25 1011.90 1011.76 1011.39 1010.98 1010.65 1010.46 1010.26 1010.00 1009.80 1009.58 1009.44 1009.40 1009.28 1009.02 1008.85 1008.78 1008.63 1008.39 1008.07 1007.90 1007.71
1018.13 1017.76 1017.52 1017.17 1016.91 1016.59 1016.14 1015.79 1015.60 1015.36 1015.01 1014.64 1014.34 1014.05 1013.82 1013.50 1013.11 1012.91 1012.68 1012.41 1011.99 1011.74 1011.47 1011.25 1011.10 1010.84 1010.29 1009.91 1009.76 1009.56 1009.39 1009.31 1009.15 1009.08 1008.84 1008.48 1008.19 1007.85 1007.60 1007.44 1007.25 1007.00 1006.89
1018.10 1017.53 1017.16 1016.79 1016.37 1015.99 1015.56 1015.13 1014.82 1014.50 1014.07 1013.65 1013.57 1013.40 1013.10 1012.75 1012.43 1012.12 1011.68 1011.41 1011.14 1010.91 1010.79 1010.59 1010.55 1010.10 1009.73 1009.35 1009.01 1008.82 1008.71 1008.51 1008.30 1008.20 1007.95 1007.60 1007.34 1007.09 1006.80 1006.59 1006.31 1006.15 1006.09
Wind_Speed
7 7 7 7 6 5 3 2 3 3 3 3 4 4 4 4 3 4 5 6 6 6 7 6 6 6 6 7 7 7 8 7 7 7 7 6 4 1 5 3 4 7 8
8 8 8 6 4 4 4 3 3 4 3 3 4 3 4 3 4 4 5 5 7 7 7 7 7 7 6 7 7 7 6 6 6 6 7 5 4 4 7 3 2 6 5
10 9 8 7 6 5 4 4 4 4 4 4 3 3 3 4 3 5 6 6 8 7 7 8 7 7 6 5 6 6 7 6 6 6 3 4 3 8 3 8 4 5 4
9 8 7 6 6 6 4 4 4 3 3 4 4 5 4 5 5 5 5 6 7 7 6 7 7 7 6 7 6 5 5 6 6 6 3 5 5 3 5 5 11 7 5
8 8 7 7 6 5 4 3 2 3 3 4 5 5 6 5 5 6 8 8 7 7 6 6 7 7 5 6 6 6 6 5 6 6 6 6 6 7 3 8 8 8 8
7 8 7 8 6 5 4 2 2 3 4 4 5 5 6 7 6 7 7 6 6 5 7 8 7 6 6 6 6 6 6 6 6 6 6 6 6 7 6 8 9 9 8
10 9 10 8 7 6 4 2 1 3 4 4 5 6 6 7 7 8 6 8 6 6 7 8 7 6 6 6 6 6 7 7 6 6 6 5 6 6 6 7 8 8 8
9 10 9 8 7 5 4 2 2 3 4 5 6 5 7 5 6 7 7 6 6 6 9 8 8 8 8 7 7 6 6 6 5 7 6 6 6 6 5 6 7 8 6
9 10 9 8 7 5 3 1 2 3 4 5 5 6 6 6 6 7 7 6 7 7 8 9 9 9 8 8 7 6 7 7 6 6 6 6 5 5 5 5 5 6 6
11 10 10 9 6 4 3 1 1 2 3 4 4 4 5 5 5 5 7 7 8 8 9 9 9 9 8 8 7 6 6 7 5 5 7 6 5 5 4 4 5 5 7
11 10 9 8 7 5 4 2 2 2 2 3 4 4 4 5 5 5 6 7 8 8 8 9 9 9 9 9 8 8 7 7 7 7 7 7 7 5 5 4 4 5 6
10 10 10 9 8 7 5 4 3 2 1 3 4 4 4 5 6 6 7 7 8 8 8 8 9 9 9 9 9 8 8 7 7 7 7 7 6 5 5 5 6 6 6
8 9 10 11 10 8 7 6 4 2 1 3 4 4 5 6 7 8 8 8 8 9 8 8 8 9 9 9 8 8 8 7 7 7 7 8 7 6 5 6 6 5 5
9 11 11 12 11 8 7 6 4 3 2 3 3 5 5 6 6 7 8 8 8 8 8 9 9 9 9 9 8 9 9 8 7 6 6 6 7 7 6 6 6 6 6
10 10 11 11 10 9 8 6 4 3 3 4 4 5 5 6 6 7 7 7 7 7 8 8 8 7 7 6 8 9 9 9 8 7 6 5 5 8 9 7 7 7 6
11 9 9 10 10 9 7 4 4 4 4 5 5 5 5 6 7 7 7 7 7 8 8 8 8 6 6 5 7 9 8 9 8 8 7 7 6 7 9 12 14 13 8
12 10 6 7 8 7 3 5 4 3 5 5 6 5 6 7 8 8 8 8 8 8 8 8 8 8 8 8 9 11 8 9 9 8 8 7 6 6 7 8 10 13 17
12 10 5 5 5 5 5 5 4 5 6 6 7 7 7 7 8 8 8 9 8 8 8 8 8 8 8 11 10 12 9 9 9 9 9 8 9 7 5 7 9 9 9
12 11 10 8 7 7 6 6 7 7 7 8 8 8 8 8 9 8 9 9 8 8 8 8 9 10 10 12 10 9 8 9 10 9 8 7 8 11 8 7 10 11 10
12 11 10 10 9 9 7 8 8 8 8 8 8 8 8 8 9 9 9 9 9 9 8 10 10 13 12 15 13 11 7 10 8 9 9 10 10 12 12 8 9 11 10
11 11 10 10 10 7 6 7 9 9 8 7 8 9 9 9 10 10 9 10 10 10 11 12 11 13 12 13 15 14 8 9 9 8 8 8 11 8 11 14 9 12 12
12 11 10 10 9 8 8 10 10 9 8 8 8 10 10 9 8 9 9 10 10 11 12 12 11 10 11 12 12 14 17 17 11 11 9 10 13 10 13 15 19 20 17
12 10 11 11 10 10 9 10 10 10 10 9 10 11 11 10 10 10 10 9 10 10 10 10 10 9 8 8 14 17 18 18 13 10 13 17 14 18 17 22 19 15 7
13 12 12 13 13 11 10 10 10 10 11 12 12 11 11 12 11 9 9 9 9 10 10 10 10 10 9 9 9 8 8 11 10 10 11 13 15 17 17 17 14 8 8
12 11 12 12 14 14 13 12 11 12 12 13 12 11 10 11 11 10 10 10 11 11 10 10 9 10 10 10 14 14 10 9 11 14 10 10 9 9 9 9 9 8 7
13 13 14 14 15 15 15 14 14 14 15 13 10 9 9 9 10 10 10 15 18 21 22 24 19 13 22 26 26 26 24 24 23 12 10 11 11 10 10 10 10 7 10
Wind_Direction
132 148 137 134 127 129 129 55 356 3 335 349 344 338 355 330 324 351 334 324 328 321 319 314 312 317 319 322 318 324 326 325 330 318 328 300 298 234 328 23 13 355 354
159 152 147 139 133 98 81 40 17 3 8 345 349 325 327 325 331 305 311 325 321 322 309 313 310 309 312 313 320 329 328 320 347 335 303 340 309 23 310 354 5 16 2
154 153 152 137 130 93 74 71 49 27 18 355 315 309 268 249 280 347 330 339 322 322 310 308 304 304 303 303 315 319 324 322 319 344 313 328 327 329 346 323 334 15 28
148 148 142 137 116 108 103 91 71 35 24 8 340 342 331 329 337 327 322 321 335 334 324 312 305 305 304 300 301 311 319 312 312 321 311 305 273 306 314 320 319 5 342
157 150 144 137 129 128 116 120 92 53 22 9 4 347 346 338 334 334 336 337 342 342 340 331 319 309 303 298 299 301 299 302 298 305 314 307 299 269 232 305 325 322 333
154 152 147 152 149 150 146 134 102 41 19 8 5 0 350 343 342 345 338 344 332 336 346 344 323 311 301 299 299 297 287 280 286 289 290 291 298 309 309 299 308 313 318
173 167 169 171 170 162 151 133 44 34 2 5 6 2 357 345 345 348 342 336 337 340 344 334 329 320 313 303 296 291 285 277 275 282 285 286 282 290 299 301 303 311 318
182 182 179 180 178 166 160 157 34 13 357 5 4 1 2 356 346 349 339 333 334 333 333 329 323 319 317 311 301 288 278 274 274 276 275 284 285 286 289 295 308 309 309
193 193 190 195 184 183 175 30 358 356 11 4 358 7 3 359 352 345 344 345 337 333 335 329 328 327 322 315 306 295 295 294 292 284 281 278 280 285 288 290 293 296 307
204 200 199 199 195 186 178 205 284 350 6 0 5 3 358 356 344 343 349 345 341 340 335 336 333 329 327 324 319 306 303 302 295 286 283 285 284 286 286 286 286 284 284
214 211 209 204 201 198 201 217 252 308 349 359 356 352 349 341 334 337 341 337 327 335 333 332 329 331 334 335 329 325 318 312 305 299 290 284 282 281 283 282 272 275 278
225 221 215 205 208 213 204 215 223 255 340 353 341 335 323 324 323 328 325 320 318 320 321 320 321 326 330 332 332 332 330 322 316 312 307 299 293 280 276 274 273 272 278
242 233 221 215 217 210 208 210 214 239 304 329 324 319 320 322 323 322 321 317 316 316 315 318 319 320 322 323 327 327 324 322 319 316 313 309 304 292 281 274 274 270 274
256 244 231 222 219 213 209 208 210 211 247 279 295 299 303 311 309 311 310 313 315 312 319 320 317 318 320 319 331 326 322 319 315 315 303 297 297 293 291 279 273 274 276
301 260 238 229 218 212 208 204 209 224 260 269 276 285 297 297 300 300 304 305 307 304 304 306 305 311 313 310 334 319 313 310 310 305 300 294 286 288 278 281 282 285 274
333 296 249 242 229 224 220 199 228 234 245 269 282 290 290 293 292 293 296 296 293 292 298 293 294 289 287 306 309 308 305 303 304 305 308 304 289 270 270 270 264 260 271
1 346 303 255 250 241 243 248 257 258 258 269 274 278 277 279 283 289 291 291 292 293 288 288 290 291 292 292 297 303 296 298 291 295 296 299 296 275 276 283 269 257 252
354 350 331 295 281 271 269 271 263 263 265 274 280 276 273 276 284 286 283 283 284 286 286 284 281 283 283 273 272 289 287 281 284 282 285 285 292 291 299 297 293 283 275
339 336 328 321 310 288 281 283 274 269 263 263 265 270 277 280 283 284 286 287 288 286 285 283 284 277 277 271 256 269 274 272 274 275 276 271 274 287 306 296 286 284 282
342 339 333 322 306 302 322 295 287 284 281 283 288 293 288 280 278 281 284 283 280 275 278 278 275 275 276 277 259 254 268 274 275 280 277 270 255 265 276 286 290 284 286
338 335 324 314 305 314 304 286 285 279 292 295 289 285 284 281 275 277 278 280 280 277 272 273 275 275 270 274 273 265 258 261 270 268 270 269 266 247 273 280 275 275 290
321 319 311 308 309 298 286 288 289 295 292 288 287 285 284 281 277 271 271 273 275 274 273 272 272 269 271 268 265 261 250 256 263 263 265 265 266 257 266 277 275 277 282
316 313 309 304 296 291 286 285 291 299 298 290 282 280 279 277 275 270 262 263 265 267 272 275 274 274 274 273 270 267 264 260 258 258 265 274 281 285 285 274 265 271 265
317 317 310 300 295 292 287 279 278 282 283 281 279 277 275 276 280 278 270 265 266 267 269 268 270 274 278 278 279 279 276 272 259 256 258 251 253 261 268 275 272 254 245
304 303 301 292 290 289 287 289 290 289 283 273 272 274 273 270 271 268 272 271 270 271 280 280 282 282 277 272 279 280 282 281 278 289 284 277 271 267 263 260 260 260 253
303 302 300 297 290 288 286 286 284 280 276 271 269 270 271 270 270 269 270 262 260 266 265 264 260 267 269 277 277 279 282 282 282 281 271 270 268 263 261 259 258 251 258